Location: Stara Lesna
(49.1528°N, 20.2911°E)
Time: 03:41:23
(UTC+02:00)

Meteor 2-6 Rocket - Pass Details

Date: 13 July 2020
Orbit: 804 x 916 km, 81.3° (Epoch: 11 August)

Event Time Altitude Azimuth Distance (km) Brightness Sun altitude
Rises 00:23:20 0° 346° (NNW) 3,361 8.9 -18.9°
Reaches altitude 10° 00:25:45 10° 345° (NNW) 2,414 7.8 -18.9°
Maximum altitude 00:31:10 76° 261° (W) 835 4.1 -19.0°
Enters shadow 00:33:26 36° 183° (S) 1,261 4.6 -19.0°
